Piedras Negras, Mexico

8:53 PM CDT on April 19, 2018 (GMT -0500)
Piedras Negras International

Weather History for MMPG - November, 2012

Change the Weather History Date:

Friday, November 30, 2012

  Actual Average Record
Temperature  
Mean Temperature 67 °F -  
Max Temperature 84 °F 67 °F 84 °F (2012)
Min Temperature 50 °F 49 °F 37 °F (2001)
Cooling Degree Days 2    
Growing Degree Days 17 (Base 50)    
Moisture  
Dew Point 59 °F    
Average Humidity 67    
Maximum Humidity 88    
Minimum Humidity 43    
Precipitation  
Precipitation 0.00 in - - ()
Sea Level Pressure  
Sea Level Pressure 30.10 in    
Wind  
Wind Speed 4 mph ()    
Max Wind Speed 38 mph    
Max Gust Speed -    
Visibility 9.1 miles    
Events      
Averages and records for this station are not official NWS values.
T = Trace of Precipitation, MM = Missing Value Source: Averaged Metar Reports

Daily Weather History Graph

Daily Weather History Graph

Search for Another Location

Airport or City:

Astronomy

Nov. 30, 2012 Rise Set
Actual Time 7:17 AM CST 5:44 PM CST
Civil Twilight 6:51 AM CST 6:10 PM CST
Nautical Twilight 6:22 AM CST 6:39 PM CST
Astronomical Twilight 5:53 AM CST 7:07 PM CST
Moon 7:39 PM CST (11/30) 8:51 AM CST (11/30)
Length of Visible Light 11h 18m
Length of Day
10h 27m
Waning Gibbous, 96% of the Moon is Illuminated
Nov 30
Waning Gibbous
Dec 6
Last Quarter
Dec 13
New
Dec 19
First Quarter
Dec 28
Full

Hourly Weather History & Observations

Time (CST) Temp. Heat Index Dew Point Humidity Pressure Visibility Wind Dir Wind Speed Gust Speed Precip Events Conditions
2:50 AM 57 °F - 52 °F 78% 30.15 in 12 mi SSW 2.2 mph - -  
5:40 AM 55 °F - 52 °F 88% 30.14 in 12 mi NNE 2.2 mph - -   Partly Cloudy
7:40 AM 53.6 °F - 50.0 °F 88% 30.14 in 1.0 mi Calm Calm - N/A   Haze
8:35 AM 56 °F - 53 °F 84% 30.22 in 14 mi SSW 2.2 mph - -   Haze
8:50 AM 57.2 °F - 53.6 °F 88% 30.11 in 1.5 mi Calm Calm - N/A   Haze
9:40 AM 60.8 °F - 55.4 °F 82% 30.17 in 4.0 mi Calm Calm - N/A   Partly Cloudy
11:35 AM 74 °F - 61 °F 54% 30.20 in 14 mi SSW 2.2 mph - -   Haze
11:40 AM 71.6 °F - 60.8 °F 69% 30.10 in 7.0 mi SE 5.8 mph - N/A   Clear
12:40 PM 75.2 °F - 62.6 °F 65% 30.12 in 8.0 mi SE 5.8 mph - N/A   Clear
1:40 PM 77.0 °F - 60.8 °F 57% 30.09 in 8.0 mi SE 5.8 mph - N/A   Clear
2:35 PM 81 °F - 62 °F 43% 30.08 in 14 mi Calm Calm - -   Haze
2:40 PM 78.8 °F - 59.0 °F 51% 29.99 in 8.0 mi SE 6.9 mph - N/A   Clear
3:40 PM 80.6 °F 81.8 °F 62.6 °F 54% 30.04 in 8.0 mi ESE 6.9 mph - N/A   Clear
4:40 PM 80.6 °F 81.8 °F 62.6 °F 54% 30.04 in 8.0 mi ESE 6.9 mph - N/A   Clear
5:35 PM 77 °F - 62 °F 51% 30.07 in 14 mi ESE 6.7 mph - -  
5:40 PM 77.0 °F - 60.8 °F 57% 29.97 in 8.0 mi ESE 6.9 mph - N/A   Clear
6:40 PM 73.4 °F - 59.0 °F 61% 30.04 in 8.0 mi ESE 6.9 mph - N/A   Clear
8:40 PM 69 °F - 63 °F 76% 30.08 in 12 mi ESE 2.2 mph - -  
11:30 PM 65 °F - 61 °F 82% 30.10 in 12 mi North 38.0 mph - -